,,,PA_Meas_PMT16A,,PR_Meas_QMR101_102,,RH_Meas_QMH101,,SR_Meas_QMS101,,TA_Meas_QMH101,,GenWind,,GenWind,
date,time,status,PA,status,PR,status,RH,status,SR,status,TA,status,DirAvg,status,SpdAvg,
2009-11-10, 00:00:04,VALID,996.984,VALID,0,VALID,89.3657,VALID,0,VALID,24.2281,VALID,121,VALID,0.463672,
2009-11-10, 00:01:04,VALID,996.974,VALID,0,VALID,89.6328,VALID,0,VALID,24.2067,VALID,121,VALID,0.485547,
2009-11-10, 00:02:04,VALID,996.986,VALID,0,VALID,89.7472,VALID,0,VALID,24.2067,VALID,121,VALID,0.517187,
2009-11-10, 00:03:04,VALID,997.001,VALID,0,VALID,89.8922,VALID,0,VALID,24.2281,VALID,121,VALID,0.732813,
2009-11-10, 00:04:04,VALID,996.971,VALID,0,VALID,90.0295,VALID,0,VALID,24.2476,VALID,121,VALID,0.666406,
2009-11-10, 00:05:04,VALID,996.969,VALID,0,VALID,90.0753,VALID,0,VALID,24.2671,VALID,121,VALID,0.758203,
2009-11-10, 00:06:04,VALID,996.958,VALID,0,VALID,89.9609,VALID,0,VALID,24.2476,VALID,124,VALID,0.554688,
2009-11-10, 00:07:04,VALID,996.949,VALID,0,VALID,89.9532,VALID,0,VALID,24.2476,VALID,120,VALID,0.56875,
2009-11-10, 00:08:04,VALID,996.976,VALID,0,VALID,89.9837,VALID,0,VALID,24.2671,VALID,148,VALID,0.360156,
2009-11-10, 00:09:04,VALID,996.932,VALID,0,VALID,90.1134,VALID,0,VALID,24.2671,VALID,148,VALID,0.289063,
2009-11-10, 00:10:04,VALID,996.938,VALID,0,VALID,90.0066,VALID,0,VALID,24.2476,VALID,148,VALID,0.344531,
2009-11-10, 00:11:04,VALID,996.894,VALID,0,VALID,89.9532,VALID,0,VALID,24.2067,VALID,148,VALID,0.232422,
2009-11-10, 00:12:04,VALID,996.89,VALID,0,VALID,90.0524,VALID,0,VALID,24.2281,VALID,148,VALID,0.0535156,
2009-11-10, 00:13:04,VALID,996.906,VALID,0,VALID,90.1363,VALID,0,VALID,24.2086,VALID,148,VALID,0,
2009-11-10, 00:14:04,VALID,996.88,VALID,0,VALID,90.0219,VALID,0,VALID,24.2086,VALID,148,VALID,0.090625,
2009-11-10, 00:15:04,VALID,996.9,VALID,0,VALID,90.0219,VALID,0,VALID,24.2086,VALID,148,VALID,0,
2009-11-10, 00:16:04,VALID,996.915,VALID,0,VALID,90.0906,VALID,0,VALID,24.1891,VALID,148,VALID,0,
2009-11-10, 00:17:04,VALID,996.897,VALID,0,VALID,90.2203,VALID,0,VALID,24.1891,VALID,148,VALID,0,
2009-11-10, 00:18:04,VALID,996.883,VALID,0,VALID,90.3652,VALID,0,VALID,24.1891,VALID,148,VALID,0,
2009-11-10, 00:19:04,VALID,996.886,VALID,0,VALID,90.4186,VALID,0,VALID,24.1909,VALID,148,VALID,0,
2009-11-10, 00:20:04,VALID,996.9,VALID,0,VALID,90.3805,VALID,0,VALID,24.15,VALID,148,VALID,0,
2009-11-10, 00:21:04,VALID,996.879,VALID,0,VALID,90.411,VALID,0,VALID,24.15,VALID,148,VALID,0.501172,
2009-11-10, 00:22:04,VALID,996.867,VALID,0,VALID,90.06,VALID,0,VALID,24.1305,VALID,144,VALID,0.595703,
2009-11-10, 00:23:04,VALID,996.864,VALID,0,VALID,90.0295,VALID,0,VALID,24.1891,VALID,143,VALID,0.385547,
2009-11-10, 00:24:04,VALID,996.904,VALID,0,VALID,89.8083,VALID,0,VALID,24.1891,VALID,143,VALID,0.56875,
2009-11-10, 00:25:04,VALID,996.89,VALID,0,VALID,89.5717,VALID,0,VALID,24.2086,VALID,118,VALID,0.659766,
2009-11-10, 00:26:04,VALID,996.862,VALID,0,VALID,89.648,VALID,0,VALID,24.2476,VALID,114,VALID,0.652734,
2009-11-10, 00:27:04,VALID,996.827,VALID,0,VALID,89.1903,VALID,0,VALID,24.2866,VALID,114,VALID,0.550391,
2009-11-10, 00:28:04,VALID,996.799,VALID,0,VALID,88.9995,VALID,0,VALID,24.2671,VALID,111,VALID,0.526563,
2009-11-10, 00:29:04,VALID,996.786,VALID,0,VALID,89.0224,VALID,0,VALID,24.2671,VALID,106,VALID,0.651563,
2009-11-10, 00:30:04,VALID,996.805,VALID,0,VALID,89.175,VALID,0.112286,VALID,24.2634,VALID,101,VALID,0.913672,
2009-11-10, 00:31:04,VALID,996.783,VALID,0,VALID,89.4191,VALID,0.112286,VALID,24.3043,VALID,101,VALID,0.355469,
2009-11-10, 00:32:04,VALID,996.821,VALID,0,VALID,89.6175,VALID,0,VALID,24.3043,VALID,113,VALID,0.789844,
2009-11-10, 00:33:04,VALID,996.817,VALID,0,VALID,89.732,VALID,0.112286,VALID,24.283,VALID,85,VALID,0.84375,
2009-11-10, 00:34:04,VALID,996.832,VALID,0,VALID,89.7625,VALID,0,VALID,24.3043,VALID,104,VALID,1.12188,
2009-11-10, 00:35:04,VALID,996.78,VALID,0,VALID,87.8474,VALID,0.112286,VALID,24.3043,VALID,94,VALID,2.20703,
2009-11-10, 00:36:04,VALID,996.772,VALID,0,VALID,86.909,VALID,0.112286,VALID,24.4586,VALID,75,VALID,3.05938,
2009-11-10, 00:37:04,VALID,996.828,VALID,0,VALID,86.4512,VALID,0,VALID,24.6166,VALID,70,VALID,2.23047,
2009-11-10, 00:38:04,VALID,996.764,VALID,0,VALID,86.2834,VALID,0,VALID,24.6946,VALID,70,VALID,2.25977,
2009-11-10, 00:39:04,VALID,996.767,VALID,0,VALID,86.1537,VALID,0,VALID,24.6946,VALID,66,VALID,2.48711,
2009-11-10, 00:40:04,VALID,996.73,VALID,0,VALID,86.352,VALID,0,VALID,24.7142,VALID,69,VALID,2.89297,
2009-11-10, 00:41:04,VALID,996.724,VALID,0,VALID,86.2147,VALID,0,VALID,24.6556,VALID,70,VALID,2.53203,
2009-11-10, 00:42:04,VALID,996.706,VALID,0.5,VALID,87.5575,VALID,0,VALID,24.5971,VALID,68,VALID,2.07539,
2009-11-10, 00:43:04,VALID,996.684,VALID,0,VALID,88.3052,VALID,0,VALID,24.4995,VALID,76,VALID,1.82891,
2009-11-10, 00:44:04,VALID,996.627,VALID,0,VALID,88.7783,VALID,0,VALID,24.4019,VALID,68,VALID,1.80352,
2009-11-10, 00:45:04,VALID,996.565,VALID,0.5,VALID,88.9461,VALID,0,VALID,24.3043,VALID,82,VALID,2.73906,
2009-11-10, 00:46:04,VALID,996.542,VALID,0,VALID,89.1292,VALID,0,VALID,24.2263,VALID,69,VALID,2.15547,
2009-11-10, 00:47:04,VALID,996.486,VALID,0,VALID,89.6099,VALID,0,VALID,24.1872,VALID,71,VALID,2.07734,
2009-11-10, 00:48:04,VALID,996.47,VALID,0,VALID,89.8388,VALID,0,VALID,24.1287,VALID,66,VALID,2.15977,
2009-11-10, 00:49:04,VALID,996.514,VALID,0,VALID,90.3881,VALID,0,VALID,24.111,VALID,47,VALID,1.80664,
2009-11-10, 00:50:04,VALID,996.489,VALID,0,VALID,90.7009,VALID,0,VALID,24.072,VALID,29,VALID,2.14023,
2009-11-10, 00:51:04,VALID,996.501,VALID,0,VALID,90.9909,VALID,0,VALID,24.0311,VALID,34,VALID,2.18867,
2009-11-10, 00:52:04,VALID,996.503,VALID,0.5,VALID,91.2655,VALID,0,VALID,23.9921,VALID,41,VALID,1.93477,
2009-11-10, 00:53:04,VALID,996.438,VALID,0,VALID,91.3952,VALID,0.112286,VALID,23.9921,VALID,49,VALID,1.38242,
2009-11-10, 00:54:04,VALID,996.485,VALID,0,VALID,91.4105,VALID,0,VALID,23.9726,VALID,48,VALID,2.24258,
2009-11-10, 00:55:04,VALID,996.445,VALID,0,VALID,91.235,VALID,0,VALID,23.9726,VALID,26,VALID,2.79766,
2009-11-10, 00:56:04,VALID,996.438,VALID,0,VALID,91.1511,VALID,0,VALID,24.0116,VALID,19,VALID,2.02773,
2009-11-10, 00:57:04,VALID,996.408,VALID,0,VALID,91.0977,VALID,0.112286,VALID,23.9726,VALID,27,VALID,1.66328,
2009-11-10, 00:58:04,VALID,996.432,VALID,0,VALID,91.1663,VALID,0,VALID,23.9921,VALID,26,VALID,1.76758,
2009-11-10, 00:59:04,VALID,996.449,VALID,0,VALID,91.2274,VALID,0,VALID,23.9921,VALID,21,VALID,1.60781,
2009-11-10, 01:00:04,VALID,996.488,VALID,0,VALID,91.2884,VALID,0,VALID,23.9744,VALID,28,VALID,1.53125,
2009-11-10, 01:01:04,VALID,996.463,VALID,0,VALID,91.3952,VALID,0,VALID,23.9549,VALID,21,VALID,1.425,
2009-11-10, 01:02:04,VALID,996.486,VALID,0,VALID,91.5478,VALID,0,VALID,23.9354,VALID,23,VALID,0.990234,
2009-11-10, 01:03:04,VALID,996.503,VALID,0,VALID,91.6088,VALID,0,VALID,23.9372,VALID,33,VALID,0.823047,
2009-11-10, 01:04:04,VALID,996.497,VALID,0,VALID,91.6851,VALID,0,VALID,23.8963,VALID,45,VALID,1.01719,
2009-11-10, 01:05:04,VALID,996.518,VALID,0,VALID,91.6699,VALID,0,VALID,23.8963,VALID,56,VALID,0.9,
2009-11-10, 01:06:04,VALID,996.513,VALID,0,VALID,91.6928,VALID,0,VALID,23.8963,VALID,42,VALID,0.922266,
2009-11-10, 01:07:04,VALID,996.538,VALID,0,VALID,91.6851,VALID,0,VALID,23.9354,VALID,57,VALID,0.900781,
2009-11-10, 01:08:04,VALID,996.55,VALID,0,VALID,91.7233,VALID,0,VALID,23.9354,VALID,68,VALID,1.0207,
2009-11-10, 01:09:04,VALID,996.537,VALID,0,VALID,91.7691,VALID,0,VALID,23.9762,VALID,64,VALID,0.946484,
2009-11-10, 01:10:04,VALID,996.572,VALID,0,VALID,91.6012,VALID,0,VALID,23.9744,VALID,71,VALID,1.50859,
2009-11-10, 01:11:04,VALID,996.569,VALID,0,VALID,91.6165,VALID,0,VALID,24.0134,VALID,66,VALID,1.28477,
2009-11-10, 01:12:04,VALID,996.591,VALID,0,VALID,91.2655,VALID,0,VALID,24.0134,VALID,59,VALID,1.78359,
2009-11-10, 01:13:04,VALID,996.563,VALID,0,VALID,91.0061,VALID,0,VALID,24.072,VALID,56,VALID,1.97656,
2009-11-10, 01:14:04,VALID,996.57,VALID,0,VALID,90.7009,VALID,0,VALID,24.111,VALID,56,VALID,2.24258,
2009-11-10, 01:15:04,VALID,996.56,VALID,0,VALID,90.2355,VALID,0,VALID,24.1305,VALID,60,VALID,2.38555,
2009-11-10, 01:16:04,VALID,996.56,VALID,0,VALID,89.9074,VALID,0,VALID,24.1696,VALID,70,VALID,2.15352,
2009-11-10, 01:17:04,VALID,996.508,VALID,0,VALID,89.7701,VALID,0,VALID,24.2086,VALID,80,VALID,1.73828,
2009-11-10, 01:18:04,VALID,996.479,VALID,0.5,VALID,89.7549,VALID,0,VALID,24.1891,VALID,76,VALID,1.58086,
2009-11-10, 01:19:04,VALID,996.448,VALID,0,VALID,89.8998,VALID,0,VALID,24.2104,VALID,61,VALID,1.22422,
2009-11-10, 01:20:04,VALID,996.421,VALID,0,VALID,89.8464,VALID,0,VALID,24.1909,VALID,89,VALID,1.59375,
2009-11-10, 01:21:04,VALID,996.427,VALID,0,VALID,89.5794,VALID,0,VALID,24.15,VALID,84,VALID,1.9332,
2009-11-10, 01:22:04,VALID,996.395,VALID,0,VALID,89.7625,VALID,0,VALID,24.1696,VALID,111,VALID,1.11289,
2009-11-10, 01:23:04,VALID,996.372,VALID,0,VALID,89.8693,VALID,0,VALID,24.1714,VALID,82,VALID,1.49844,
2009-11-10, 01:24:04,VALID,996.363,VALID,0,VALID,89.8388,VALID,0,VALID,24.1519,VALID,96,VALID,1.72617,
2009-11-10, 01:25:04,VALID,996.33,VALID,0,VALID,89.9837,VALID,0,VALID,24.1305,VALID,101,VALID,1.45234,
2009-11-10, 01:26:04,VALID,996.296,VALID,0,VALID,90.0982,VALID,0,VALID,24.111,VALID,118,VALID,1.22383,
2009-11-10, 01:27:04,VALID,996.295,VALID,0,VALID,90.3576,VALID,0,VALID,24.1128,VALID,112,VALID,0.845312,
2009-11-10, 01:28:04,VALID,996.246,VALID,0,VALID,90.1134,VALID,0,VALID,24.0933,VALID,117,VALID,1.2832,
2009-11-10, 01:29:04,VALID,996.246,VALID,0,VALID,90.3194,VALID,0,VALID,24.072,VALID,120,VALID,0.810938,
2009-11-10, 01:30:04,VALID,996.236,VALID,0,VALID,90.5331,VALID,0,VALID,24.072,VALID,119,VALID,0.561328,
2009-11-10, 01:31:04,VALID,996.245,VALID,0,VALID,90.7696,VALID,0,VALID,24.0525,VALID,119,VALID,0.437109,
2009-11-10, 01:32:04,VALID,996.253,VALID,0,VALID,90.7391,VALID,0,VALID,24.0134,VALID,86,VALID,0.862891,
2009-11-10, 01:33:04,VALID,996.231,VALID,0,VALID,90.8383,VALID,0,VALID,23.9939,VALID,92,VALID,0.891797,
2009-11-10, 01:34:04,VALID,996.203,VALID,0,VALID,90.6704,VALID,0,VALID,24.0153,VALID,89,VALID,1.3707,
2009-11-10, 01:35:04,VALID,996.204,VALID,0,VALID,90.6094,VALID,0,VALID,23.9939,VALID,78,VALID,1.2293,
2009-11-10, 01:36:04,VALID,996.175,VALID,0,VALID,90.4415,VALID,0,VALID,23.9939,VALID,79,VALID,1.18867,
2009-11-10, 01:37:04,VALID,996.162,VALID,0.5,VALID,90.411,VALID,0,VALID,24.0153,VALID,72,VALID,0.905859,
2009-11-10, 01:38:04,VALID,996.146,VALID,0,VALID,90.5026,VALID,0,VALID,24.0348,VALID,65,VALID,1.11172,
2009-11-10, 01:39:04,VALID,996.109,VALID,0,VALID,90.5483,VALID,0,VALID,23.9744,VALID,55,VALID,1.00117,
2009-11-10, 01:40:04,VALID,996.146,VALID,0,VALID,90.5788,VALID,0,VALID,23.9957,VALID,50,VALID,1.18047,
2009-11-10, 01:41:04,VALID,996.164,VALID,0,VALID,90.7238,VALID,0,VALID,23.9549,VALID,53,VALID,1.24023,
2009-11-10, 01:42:04,VALID,996.167,VALID,0,VALID,90.7162,VALID,0,VALID,23.9354,VALID,53,VALID,1.2793,
2009-11-10, 01:43:04,VALID,996.218,VALID,0,VALID,90.9146,VALID,0,VALID,23.9372,VALID,70,VALID,0.703906,
2009-11-10, 01:44:04,VALID,996.249,VALID,0,VALID,91.0443,VALID,0,VALID,23.9177,VALID,96,VALID,0.878516,
2009-11-10, 01:45:04,VALID,996.297,VALID,0,VALID,91.0977,VALID,0,VALID,23.8963,VALID,100,VALID,0.83125,
2009-11-10, 01:46:04,VALID,996.323,VALID,0,VALID,91.2121,VALID,0,VALID,23.8963,VALID,105,VALID,1.20313,
2009-11-10, 01:47:04,VALID,996.356,VALID,0.5,VALID,91.4028,VALID,0,VALID,23.8982,VALID,114,VALID,0.6,
2009-11-10, 01:48:04,VALID,996.34,VALID,0,VALID,91.4639,VALID,0,VALID,23.8378,VALID,103,VALID,0.968359,
2009-11-10, 01:49:04,VALID,996.352,VALID,0,VALID,91.4257,VALID,0,VALID,23.8183,VALID,96,VALID,1.1625,
2009-11-10, 01:50:04,VALID,996.352,VALID,0,VALID,91.4791,VALID,0,VALID,23.8183,VALID,88,VALID,0.965625,
2009-11-10, 01:51:04,VALID,996.336,VALID,0.5,VALID,91.6088,VALID,0,VALID,23.8201,VALID,83,VALID,0.925391,
2009-11-10, 01:52:04,VALID,996.325,VALID,0,VALID,91.647,VALID,0,VALID,23.7988,VALID,82,VALID,1.08477,
2009-11-10, 01:53:04,VALID,996.327,VALID,0,VALID,91.7309,VALID,0,VALID,23.7793,VALID,77,VALID,1.22539,
2009-11-10, 01:54:04,VALID,996.304,VALID,0,VALID,91.7691,VALID,0,VALID,23.7811,VALID,77,VALID,1.12305,
2009-11-10, 01:55:04,VALID,996.31,VALID,0,VALID,91.8606,VALID,0,VALID,23.7597,VALID,77,VALID,0.962109,
2009-11-10, 01:56:04,VALID,996.292,VALID,0,VALID,91.9293,VALID,0,VALID,23.7811,VALID,78,VALID,0.874609,
2009-11-10, 01:57:04,VALID,996.304,VALID,0.5,VALID,91.9598,VALID,0,VALID,23.7616,VALID,83,VALID,1.07266,
2009-11-10, 01:58:04,VALID,996.308,VALID,0,VALID,91.9827,VALID,0,VALID,23.7402,VALID,87,VALID,1.13359,
2009-11-10, 01:59:04,VALID,996.308,VALID,0,VALID,92.059,VALID,0,VALID,23.7207,VALID,85,VALID,1.03086,
2009-11-10, 02:00:04,VALID,996.297,VALID,0,VALID,92.0437,VALID,0,VALID,23.7012,VALID,86,VALID,1.23828,
2009-11-10, 02:01:04,VALID,996.29,VALID,0.5,VALID,92.1506,VALID,0,VALID,23.7012,VALID,86,VALID,0.814062,
2009-11-10, 02:02:04,VALID,996.29,VALID,0,VALID,92.1506,VALID,0,VALID,23.6817,VALID,88,VALID,0.836328,
2009-11-10, 02:03:04,VALID,996.279,VALID,0,VALID,92.2116,VALID,0,VALID,23.6622,VALID,91,VALID,0.751172,
2009-11-10, 02:04:04,VALID,996.295,VALID,0,VALID,92.2421,VALID,0,VALID,23.664,VALID,105,VALID,0.825391,
2009-11-10, 02:05:04,VALID,996.301,VALID,0.5,VALID,92.2726,VALID,0,VALID,23.6427,VALID,114,VALID,1.00078,
2009-11-10, 02:06:04,VALID,996.289,VALID,0,VALID,92.2726,VALID,0,VALID,23.6036,VALID,133,VALID,1.10312,
2009-11-10, 02:07:04,VALID,996.291,VALID,0,VALID,92.3337,VALID,0,VALID,23.625,VALID,129,VALID,1.02266,
2009-11-10, 02:08:04,VALID,996.31,VALID,0,VALID,92.3566,VALID,0,VALID,23.6036,VALID,129,VALID,0.962109,
2009-11-10, 02:09:04,VALID,996.291,VALID,0,VALID,92.4176,VALID,0,VALID,23.6054,VALID,120,VALID,0.891016,
2009-11-10, 02:10:04,VALID,996.323,VALID,0.5,VALID,92.4481,VALID,0,VALID,23.5646,VALID,118,VALID,0.984766,
2009-11-10, 02:11:04,VALID,996.313,VALID,0,VALID,92.5168,VALID,0,VALID,23.5841,VALID,110,VALID,1.04336,
2009-11-10, 02:12:04,VALID,996.29,VALID,0,VALID,92.5778,VALID,0,VALID,23.5646,VALID,108,VALID,0.903906,
2009-11-10, 02:13:04,VALID,996.264,VALID,0,VALID,92.616,VALID,0,VALID,23.5646,VALID,103,VALID,1.04727,
2009-11-10, 02:14:04,VALID,996.285,VALID,0,VALID,92.6923,VALID,0,VALID,23.5664,VALID,102,VALID,0.820313,
2009-11-10, 02:15:04,VALID,996.255,VALID,0,VALID,92.677,VALID,0,VALID,23.5841,VALID,103,VALID,0.913672,
2009-11-10, 02:16:04,VALID,996.26,VALID,0,VALID,92.6923,VALID,0,VALID,23.5433,VALID,103,VALID,0.670703,
2009-11-10, 02:17:04,VALID,996.242,VALID,0.5,VALID,92.677,VALID,0,VALID,23.5433,VALID,103,VALID,0.5125,
2009-11-10, 02:18:04,VALID,996.256,VALID,0,VALID,92.738,VALID,0,VALID,23.5433,VALID,103,VALID,0.414844,
2009-11-10, 02:19:04,VALID,996.247,VALID,0,VALID,92.7838,VALID,0,VALID,23.5238,VALID,103,VALID,0.555078,
2009-11-10, 02:20:04,VALID,996.249,VALID,0,VALID,92.8296,VALID,0,VALID,23.5043,VALID,103,VALID,0.725391,
2009-11-10, 02:21:04,VALID,996.204,VALID,0,VALID,92.8525,VALID,0.112286,VALID,23.5238,VALID,103,VALID,0.711719,
2009-11-10, 02:22:04,VALID,996.19,VALID,0,VALID,92.8906,VALID,0.112286,VALID,23.5043,VALID,103,VALID,0.758984,
2009-11-10, 02:23:04,VALID,996.169,VALID,0,VALID,92.9135,VALID,0,VALID,23.5238,VALID,103,VALID,0.63125,
2009-11-10, 02:24:04,VALID,996.175,VALID,0,VALID,92.9364,VALID,0,VALID,23.5451,VALID,103,VALID,0.723437,
2009-11-10, 02:25:04,VALID,996.182,VALID,0,VALID,92.9593,VALID,0,VALID,23.5043,VALID,103,VALID,0.752344,
2009-11-10, 02:26:04,VALID,996.15,VALID,0,VALID,92.9822,VALID,0,VALID,23.5256,VALID,105,VALID,0.86875,
2009-11-10, 02:27:04,VALID,996.172,VALID,0,VALID,93.0203,VALID,0,VALID,23.5043,VALID,105,VALID,0.95,
2009-11-10, 02:28:04,VALID,996.156,VALID,0,VALID,93.0585,VALID,0.112286,VALID,23.5043,VALID,106,VALID,0.898828,
2009-11-10, 02:29:04,VALID,996.096,VALID,0,VALID,93.089,VALID,0,VALID,23.5238,VALID,108,VALID,0.841406,
2009-11-10, 02:30:04,VALID,996.088,VALID,0.5,VALID,93.0737,VALID,0,VALID,23.5043,VALID,104,VALID,0.967188,
2009-11-10, 02:31:04,VALID,996.058,VALID,0,VALID,93.089,VALID,0,VALID,23.5043,VALID,91,VALID,0.982422,
2009-11-10, 02:32:04,VALID,996.037,VALID,0,VALID,93.1195,VALID,0,VALID,23.5043,VALID,91,VALID,0.916406,
2009-11-10, 02:33:04,VALID,996.048,VALID,0,VALID,93.1577,VALID,0,VALID,23.5451,VALID,96,VALID,0.570313,
2009-11-10, 02:34:04,VALID,996.039,VALID,0,VALID,93.1424,VALID,0,VALID,23.5043,VALID,125,VALID,0.741797,
2009-11-10, 02:35:04,VALID,996.06,VALID,0,VALID,93.1577,VALID,0,VALID,23.5043,VALID,133,VALID,0.680859,
2009-11-10, 02:36:04,VALID,996.018,VALID,0,VALID,93.1577,VALID,0,VALID,23.5043,VALID,133,VALID,0.477344,
2009-11-10, 02:37:04,VALID,995.988,VALID,0,VALID,93.1653,VALID,0,VALID,23.5043,VALID,133,VALID,0.401172,
2009-11-10, 02:38:04,VALID,995.98,VALID,0,VALID,93.1958,VALID,0,VALID,23.5043,VALID,133,VALID,0.334766,
2009-11-10, 02:39:04,VALID,995.959,VALID,0,VALID,93.1805,VALID,0,VALID,23.5043,VALID,133,VALID,0.192578,
2009-11-10, 02:40:04,VALID,995.946,VALID,0,VALID,93.2263,VALID,0,VALID,23.5043,VALID,133,VALID,0,
2009-11-10, 02:41:04,VALID,995.939,VALID,0,VALID,93.2034,VALID,0,VALID,23.4848,VALID,133,VALID,0,
2009-11-10, 02:42:04,VALID,995.926,VALID,0,VALID,93.234,VALID,0,VALID,23.4653,VALID,133,VALID,0,
2009-11-10, 02:43:04,VALID,995.939,VALID,0,VALID,93.2416,VALID,0.112286,VALID,23.4653,VALID,133,VALID,0,
2009-11-10, 02:44:04,VALID,995.92,VALID,0,VALID,93.2797,VALID,0.112286,VALID,23.4653,VALID,133,VALID,0,
2009-11-10, 02:45:04,VALID,995.912,VALID,0,VALID,93.3026,VALID,0,VALID,23.4671,VALID,133,VALID,0.261328,
2009-11-10, 02:46:04,VALID,995.925,VALID,0,VALID,93.3179,VALID,0,VALID,23.4653,VALID,133,VALID,0.315234,
2009-11-10, 02:47:04,VALID,995.937,VALID,0,VALID,93.3179,VALID,0,VALID,23.4653,VALID,133,VALID,0.277344,
2009-11-10, 02:48:04,VALID,995.916,VALID,0,VALID,93.3103,VALID,0,VALID,23.4653,VALID,48,VALID,0.708203,
2009-11-10, 02:49:04,VALID,995.917,VALID,0,VALID,93.3408,VALID,0.112286,VALID,23.4458,VALID,42,VALID,0.846875,
2009-11-10, 02:50:04,VALID,995.893,VALID,0,VALID,93.2492,VALID,0,VALID,23.4263,VALID,31,VALID,0.727344,
2009-11-10, 02:51:04,VALID,995.894,VALID,0,VALID,93.234,VALID,0,VALID,23.3872,VALID,31,VALID,0.305859,
2009-11-10, 02:52:04,VALID,995.909,VALID,0,VALID,93.2568,VALID,0.112286,VALID,23.3464,VALID,31,VALID,0.0308594,
2009-11-10, 02:53:04,VALID,995.926,VALID,0,VALID,93.2568,VALID,0,VALID,23.3482,VALID,31,VALID,0,
2009-11-10, 02:54:04,VALID,995.892,VALID,0,VALID,93.295,VALID,0,VALID,23.3287,VALID,31,VALID,0,
2009-11-10, 02:55:04,VALID,995.87,VALID,0,VALID,93.3408,VALID,0,VALID,23.3677,VALID,31,VALID,0,
2009-11-10, 02:56:04,VALID,995.852,VALID,0,VALID,93.3789,VALID,0.112286,VALID,23.3482,VALID,31,VALID,0,
2009-11-10, 02:57:04,VALID,995.821,VALID,0,VALID,93.4247,VALID,0,VALID,23.3482,VALID,31,VALID,0,
2009-11-10, 02:58:04,VALID,995.831,VALID,0,VALID,93.4705,VALID,0.112286,VALID,23.3482,VALID,31,VALID,0.142969,
2009-11-10, 02:59:04,VALID,995.823,VALID,0,VALID,93.4857,VALID,0,VALID,23.3482,VALID,31,VALID,0.308203,
2009-11-10, 03:00:04,VALID,995.804,VALID,0,VALID,93.501,VALID,0,VALID,23.35,VALID,31,VALID,0.282422,
2009-11-10, 03:01:04,VALID,995.826,VALID,0,VALID,93.4705,VALID,0,VALID,23.35,VALID,31,VALID,0.237891,
2009-11-10, 03:02:04,VALID,995.842,VALID,0,VALID,93.4857,VALID,0,VALID,23.35,VALID,31,VALID,0.396484,
2009-11-10, 03:03:04,VALID,995.82,VALID,0,VALID,93.4628,VALID,0,VALID,23.35,VALID,31,VALID,0.519141,
2009-11-10, 03:04:04,VALID,995.801,VALID,0,VALID,93.4323,VALID,0,VALID,23.3695,VALID,33,VALID,0.677734,
2009-11-10, 03:05:04,VALID,995.806,VALID,0,VALID,93.4323,VALID,0,VALID,23.3482,VALID,33,VALID,0.510156,
2009-11-10, 03:06:04,VALID,995.811,VALID,0,VALID,93.4171,VALID,0,VALID,23.4085,VALID,36,VALID,0.397656,
2009-11-10, 03:07:04,VALID,995.775,VALID,0,VALID,93.4018,VALID,0,VALID,23.4085,VALID,36,VALID,0.243359,
2009-11-10, 03:08:04,VALID,995.777,VALID,0,VALID,93.356,VALID,0,VALID,23.428,VALID,36,VALID,0,
2009-11-10, 03:09:04,VALID,995.732,VALID,0,VALID,93.3408,VALID,0,VALID,23.428,VALID,32,VALID,0.385156,
2009-11-10, 03:10:04,VALID,995.703,VALID,0,VALID,93.3408,VALID,0,VALID,23.4475,VALID,254,VALID,0.822656,
2009-11-10, 03:11:04,VALID,995.724,VALID,0,VALID,93.3484,VALID,0,VALID,23.4671,VALID,244,VALID,0.403516,
2009-11-10, 03:12:04,VALID,995.677,VALID,0,VALID,93.2874,VALID,0,VALID,23.4263,VALID,244,VALID,0.0898438,
2009-11-10, 03:13:04,VALID,995.672,VALID,0,VALID,93.2797,VALID,0,VALID,23.4671,VALID,245,VALID,0.364062,
2009-11-10, 03:14:04,VALID,995.71,VALID,0,VALID,93.2416,VALID,0,VALID,23.4671,VALID,274,VALID,0.633203,
2009-11-10, 03:15:04,VALID,995.727,VALID,0,VALID,93.234,VALID,0,VALID,23.4475,VALID,274,VALID,0.35625,
2009-11-10, 03:16:04,VALID,995.709,VALID,0,VALID,93.1882,VALID,0,VALID,23.4475,VALID,274,VALID,0.401953,
2009-11-10, 03:17:04,VALID,995.724,VALID,0,VALID,93.1729,VALID,0,VALID,23.4067,VALID,275,VALID,0.166797,
2009-11-10, 03:18:04,VALID,995.744,VALID,0,VALID,93.1424,VALID,0,VALID,23.428,VALID,275,VALID,0.170703,
2009-11-10, 03:19:04,VALID,995.709,VALID,0,VALID,93.2034,VALID,0,VALID,23.428,VALID,272,VALID,0.251563,
2009-11-10, 03:20:04,VALID,995.733,VALID,0,VALID,93.2263,VALID,0,VALID,23.4085,VALID,272,VALID,0,
2009-11-10, 03:21:04,VALID,995.707,VALID,0,VALID,93.2492,VALID,0,VALID,23.4085,VALID,272,VALID,0.364844,
2009-11-10, 03:22:04,VALID,995.704,VALID,0,VALID,93.2874,VALID,0,VALID,23.428,VALID,272,VALID,0.432422,
2009-11-10, 03:23:04,VALID,995.651,VALID,0,VALID,93.2797,VALID,0,VALID,23.4475,VALID,272,VALID,0.133594,
2009-11-10, 03:24:04,VALID,995.667,VALID,0,VALID,93.2263,VALID,0,VALID,23.428,VALID,272,VALID,0.492188,
2009-11-10, 03:25:04,VALID,995.663,VALID,0,VALID,93.2645,VALID,0,VALID,23.428,VALID,147,VALID,0.242578,
2009-11-10, 03:26:04,VALID,995.659,VALID,0,VALID,93.2874,VALID,0,VALID,23.428,VALID,147,VALID,0,
2009-11-10, 03:27:04,VALID,995.623,VALID,0,VALID,93.2874,VALID,0,VALID,23.428,VALID,147,VALID,0.155469,
2009-11-10, 03:28:04,VALID,995.649,VALID,0,VALID,93.2797,VALID,0,VALID,23.428,VALID,147,VALID,0.492188,
2009-11-10, 03:29:04,VALID,995.627,VALID,0,VALID,93.295,VALID,0,VALID,23.4085,VALID,147,VALID,0.4625,
2009-11-10, 03:30:04,VALID,995.622,VALID,0,VALID,93.2492,VALID,0,VALID,23.4085,VALID,60,VALID,0.680078,
2009-11-10, 03:31:04,VALID,995.624,VALID,0,VALID,93.2263,VALID,0,VALID,23.4298,VALID,60,VALID,0.658984,
2009-11-10, 03:32:04,VALID,995.7,VALID,0,VALID,93.1271,VALID,0,VALID,23.389,VALID,63,VALID,1.15078,
2009-11-10, 03:33:04,VALID,995.717,VALID,0,VALID,93.0966,VALID,0,VALID,23.389,VALID,70,VALID,0.991016,
2009-11-10, 03:34:04,VALID,995.729,VALID,0,VALID,93.1195,VALID,0,VALID,23.35,VALID,72,VALID,0.778516,
2009-11-10, 03:35:04,VALID,995.721,VALID,0,VALID,93.15,VALID,0,VALID,23.3305,VALID,69,VALID,0.505078,
2009-11-10, 03:36:04,VALID,995.709,VALID,0,VALID,93.1882,VALID,0,VALID,23.311,VALID,4,VALID,0.555859,
2009-11-10, 03:37:04,VALID,995.774,VALID,0,VALID,93.234,VALID,0,VALID,23.311,VALID,300,VALID,0.703516,
2009-11-10, 03:38:04,VALID,995.758,VALID,0,VALID,93.2797,VALID,0,VALID,23.3305,VALID,276,VALID,0.389453,
2009-11-10, 03:39:04,VALID,995.777,VALID,0,VALID,93.2721,VALID,0,VALID,23.311,VALID,276,VALID,0.0894531,
2009-11-10, 03:40:04,VALID,995.788,VALID,0,VALID,93.295,VALID,0,VALID,23.2915,VALID,276,VALID,0.281641,
2009-11-10, 03:41:04,VALID,995.791,VALID,0,VALID,93.3103,VALID,0,VALID,23.3127,VALID,276,VALID,0.194531,
2009-11-10, 03:42:04,VALID,995.763,VALID,0,VALID,93.3179,VALID,0,VALID,23.2915,VALID,276,VALID,0,
2009-11-10, 03:43:04,VALID,995.76,VALID,0,VALID,93.3331,VALID,0,VALID,23.2915,VALID,276,VALID,0.51875,
2009-11-10, 03:44:04,VALID,995.756,VALID,0,VALID,93.4476,VALID,0,VALID,23.35,VALID,257,VALID,0.808203,
2009-11-10, 03:45:04,VALID,995.725,VALID,0,VALID,93.4781,VALID,0,VALID,23.389,VALID,253,VALID,0.780859,
2009-11-10, 03:46:04,VALID,995.751,VALID,0,VALID,93.4781,VALID,0,VALID,23.389,VALID,253,VALID,0.373047,